When you browse on this site, cookies collect data to enhance your experience and personalize the content and advertising you see.
Visit our Privacy Policy to learn more. By continuing to use the site, you agree to this use of cookies and data.
  • In Latvia
  • List of Countries
  • For 7 days
  • Water Temperature
  • Weather Map
  • Weather Widgets
  • user-avatar
    Login

    Hourly Weather Santa Fe

    Today, 18 October, Friday

    Time Temperature Precipitation Wind Pressure Humidity
    00:00 +9°C° 0 mm 2 mps 582 mmHg 61%
    01:00 +9°C° 0 mm 2 mps 581 mmHg 65%
    02:00 +8°C° 0 mm 2 mps 581 mmHg 69%
    03:00 +9°C° 0 mm 2 mps 581 mmHg 68%
    04:00 +9°C° 0 mm 2 mps 581 mmHg 67%
    05:00 +9°C° 0 mm 2 mps 582 mmHg 66%
    06:00 +10°C° 0.1 mm 3 mps 582 mmHg 63%
    07:00 +10°C° 0.1 mm 5 mps 582 mmHg 59%
    08:00 +10°C° 0.1 mm 7 mps 582 mmHg 56%
    09:00 +11°C° 0 mm 8 mps 583 mmHg 49%
    10:00 +12°C° 0 mm 9 mps 583 mmHg 42%
    11:00 +15°C° 0 mm 9 mps 583 mmHg 35%
    12:00 +15°C° 0 mm 9 mps 583 mmHg 34%
    13:00 +14°C° 0 mm 10 mps 582 mmHg 32%
    14:00 +14°C° 0 mm 10 mps 582 mmHg 30%
    15:00 +13°C° 0 mm 9 mps 582 mmHg 31%
    16:00 +12°C° 0 mm 9 mps 582 mmHg 31%
    17:00 +11°C° 0 mm 8 mps 582 mmHg 31%
    18:00 +10°C° 0 mm 7 mps 582 mmHg 32%
    19:00 +8°C° 0 mm 5 mps 582 mmHg 33%
    20:00 +6°C° 0 mm 4 mps 582 mmHg 34%
    21:00 +5°C° 0 mm 3 mps 582 mmHg 33%
    22:00 +5°C° 0 mm 3 mps 582 mmHg 32%
    23:00 +5°C° 0 mm 2 mps 583 mmHg 31%

    Tomorrow, 19 October, Saturday

    Time Temperature Precipitation Wind Pressure Humidity
    00:00 +4°C° 0 mm 2 mps 582 mmHg 31%
    01:00 +4°C° 0 mm 2 mps 582 mmHg 31%
    02:00 +3°C° 0 mm 2 mps 582 mmHg 31%
    03:00 +4°C° 0 mm 1 mps 582 mmHg 30%
    04:00 +3°C° 0 mm 1 mps 582 mmHg 29%
    05:00 +3°C° 0 mm 1 mps 582 mmHg 29%
    06:00 +5°C° 0 mm 1 mps 583 mmHg 27%
    07:00 +7°C° 0 mm 1 mps 584 mmHg 26%
    08:00 +7°C° 0 mm 2 mps 585 mmHg 25%
    09:00 +9°C° 0 mm 2 mps 586 mmHg 22%
    10:00 +11°C° 0 mm 3 mps 586 mmHg 20%
    11:00 +12°C° 0 mm 4 mps 586 mmHg 18%
    12:00 +13°C° 0 mm 5 mps 586 mmHg 16%
    13:00 +14°C° 0 mm 6 mps 585 mmHg 14%
    14:00 +15°C° 0 mm 7 mps 584 mmHg 12%
    15:00 +13°C° 0 mm 6 mps 584 mmHg 15%
    16:00 +12°C° 0 mm 4 mps 583 mmHg 17%
    17:00 +12°C° 0 mm 2 mps 582 mmHg 20%
    18:00 +10°C° 0 mm 2 mps 582 mmHg 23%
    19:00 +9°C° 0 mm 2 mps 581 mmHg 26%
    20:00 +8°C° 0 mm 2 mps 581 mmHg 29%
    21:00 +8°C° 0 mm 3 mps 581 mmHg 32%
    22:00 +7°C° 0 mm 3 mps 580 mmHg 35%
    23:00 +7°C° 0 mm 3 mps 580 mmHg 38%

    Day after tomorrow, 20 October, Sunday

    Time Temperature Precipitation Wind Pressure Humidity
    00:00 +6°C° 0 mm 4 mps 580 mmHg 40%
    01:00 +5°C° 0 mm 4 mps 580 mmHg 41%
    02:00 +5°C° 0 mm 5 mps 579 mmHg 42%
    03:00 +3°C° 0 mm 5 mps 579 mmHg 44%
    04:00 +3°C° 0 mm 4 mps 579 mmHg 45%
    05:00 +1°C° 0 mm 4 mps 579 mmHg 47%
    06:00 +2°C° 0 mm 5 mps 579 mmHg 44%
    07:00 +2°C° 0 mm 6 mps 580 mmHg 41%
    08:00 +2°C° 0 mm 7 mps 581 mmHg 39%
    09:00 +3°C° 0 mm 9 mps 581 mmHg 32%
    10:00 +5°C° 0 mm 10 mps 582 mmHg 25%
    11:00 +7°C° 0 mm 12 mps 582 mmHg 18%
    12:00 +7°C° 0 mm 12 mps 582 mmHg 16%
    13:00 +7°C° 0 mm 12 mps 582 mmHg 14%
    14:00 +7°C° 0 mm 12 mps 582 mmHg 12%
    15:00 +6°C° 0 mm 11 mps 581 mmHg 14%
    16:00 +5°C° 0 mm 9 mps 581 mmHg 16%
    17:00 +3°C° 0 mm 7 mps 581 mmHg 17%
    18:00 +2°C° 0 mm 6 mps 581 mmHg 20%
    19:00 0°C° 0 mm 5 mps 581 mmHg 22%
    20:00 0°C° 0 mm 3 mps 581 mmHg 25%
    21:00 0°C° 0 mm 3 mps 582 mmHg 26%
    22:00 -1°C° 0 mm 3 mps 582 mmHg 26%
    23:00 -1°C° 0 mm 3 mps 582 mmHg 27%

    21 October, Monday

    Time Temperature Precipitation Wind Pressure Humidity
    00:00 -1°C° 0 mm 3 mps 582 mmHg 27%
    01:00 -2°C° 0 mm 3 mps 582 mmHg 27%
    02:00 -2°C° 0 mm 3 mps 582 mmHg 27%
    03:00 -2°C° 0 mm 3 mps 583 mmHg 27%
    04:00 -3°C° 0 mm 2 mps 583 mmHg 28%
    05:00 -3°C° 0 mm 2 mps 583 mmHg 28%
    06:00 -1°C° 0 mm 3 mps 584 mmHg 25%
    07:00 0°C° 0 mm 3 mps 585 mmHg 23%
    08:00 +1°C° 0 mm 4 mps 586 mmHg 20%
    09:00 +4°C° 0 mm 4 mps 586 mmHg 20%
    10:00 +5°C° 0 mm 5 mps 586 mmHg 19%
    11:00 +7°C° 0 mm 5 mps 587 mmHg 18%
    12:00 +8°C° 0 mm 6 mps 587 mmHg 19%
    13:00 +9°C° 0 mm 6 mps 587 mmHg 19%
    14:00 +10°C° 0 mm 7 mps 587 mmHg 19%
    15:00 +9°C° 0 mm 6 mps 586 mmHg 22%
    16:00 +8°C° 0 mm 6 mps 586 mmHg 25%
    17:00 +7°C° 0 mm 5 mps 586 mmHg 28%
    18:00 +6°C° 0 mm 5 mps 586 mmHg 31%
    19:00 +5°C° 0 mm 4 mps 586 mmHg 35%
    20:00 +4°C° 0 mm 3 mps 586 mmHg 38%
    21:00 +3°C° 0 mm 3 mps 586 mmHg 38%
    22:00 +3°C° 0 mm 3 mps 586 mmHg 39%
    23:00 +3°C° 0 mm 3 mps 587 mmHg 40%

    22 October, Tuesday

    Time Temperature Precipitation Wind Pressure Humidity
    00:00 +2°C° 0 mm 3 mps 587 mmHg 40%
    01:00 +2°C° 0 mm 3 mps 586 mmHg 41%
    02:00 +2°C° 0 mm 3 mps 586 mmHg 41%
    03:00 +2°C° 0 mm 3 mps 586 mmHg 42%
    04:00 +2°C° 0 mm 3 mps 587 mmHg 43%
    05:00 +2°C° 0 mm 3 mps 587 mmHg 43%
    06:00 +3°C° 0 mm 3 mps 587 mmHg 40%
    07:00 +5°C° 0 mm 3 mps 588 mmHg 37%
    08:00 +7°C° 0 mm 3 mps 589 mmHg 34%
    09:00 +9°C° 0 mm 3 mps 590 mmHg 31%
    10:00 +11°C° 0 mm 4 mps 590 mmHg 28%
    11:00 +14°C° 0 mm 4 mps 591 mmHg 24%
    12:00 +15°C° 0 mm 4 mps 590 mmHg 24%
    13:00 +17°C° 0 mm 4 mps 590 mmHg 23%
    14:00 +17°C° 0 mm 4 mps 589 mmHg 22%
    15:00 +15°C° 0 mm 4 mps 589 mmHg 24%
    16:00 +14°C° 0 mm 4 mps 588 mmHg 26%
    17:00 +13°C° 0 mm 4 mps 587 mmHg 28%
    18:00 +11°C° 0 mm 3 mps 587 mmHg 30%
    19:00 +10°C° 0 mm 3 mps 586 mmHg 31%
    20:00 +8°C° 0 mm 2 mps 585 mmHg 33%
    21:00 +8°C° 0 mm 2 mps 585 mmHg 32%
    22:00 +7°C° 0 mm 2 mps 585 mmHg 31%
    23:00 +7°C° 0 mm 2 mps 585 mmHg 31%

    23 October, Wednesday

    Time Temperature Precipitation Wind Pressure Humidity
    00:00 +6°C° 0 mm 2 mps 584 mmHg 32%
    01:00 +6°C° 0 mm 2 mps 584 mmHg 34%
    02:00 +5°C° 0 mm 2 mps 583 mmHg 35%
    03:00 +5°C° 0 mm 2 mps 583 mmHg 36%
    04:00 +5°C° 0 mm 2 mps 583 mmHg 36%
    05:00 +5°C° 0 mm 2 mps 583 mmHg 37%
    06:00 +6°C° 0 mm 2 mps 584 mmHg 33%
    07:00 +8°C° 0 mm 3 mps 585 mmHg 29%
    08:00 +10°C° 0 mm 3 mps 586 mmHg 26%
    09:00 +12°C° 0 mm 4 mps 586 mmHg 23%
    10:00 +14°C° 0 mm 4 mps 587 mmHg 21%
    11:00 +16°C° 0 mm 5 mps 587 mmHg 18%
    12:00 +17°C° 0 mm 4 mps 587 mmHg 17%
    13:00 +18°C° 0 mm 4 mps 587 mmHg 17%
    14:00 +19°C° 0 mm 4 mps 587 mmHg 16%
    15:00 +17°C° 0 mm 4 mps 586 mmHg 17%
    16:00 +15°C° 0 mm 4 mps 586 mmHg 19%
    17:00 +14°C° 0 mm 5 mps 585 mmHg 21%
    18:00 +12°C° 0 mm 4 mps 585 mmHg 22%
    19:00 +11°C° 0 mm 3 mps 585 mmHg 24%
    20:00 +9°C° 0 mm 3 mps 585 mmHg 26%
    21:00 +9°C° 0 mm 3 mps 585 mmHg 28%
    22:00 +8°C° 0 mm 3 mps 585 mmHg 29%
    23:00 +7°C° 0 mm 2 mps 585 mmHg 31%
    Show more